Time,TemperatureF,DewpointF,PressureIn,WindDirection,WindDirectionDegrees,WindSpeedMPH,WindSpeedGustMPH,Humidity,HourlyPrecipIn,Conditions,Clouds,dailyrainin,SoftwareType,DateUTC
2013-05-03 00:00:00,48.2,38.9,30.52,ESE,114,0.0,0.0,70,0.00,,,0.00,Wunderground v.1.15,2013-05-03 04:00:00,
2013-05-03 00:02:00,48.2,38.9,30.52,ESE,114,0.0,0.0,70,0.00,,,0.00,Wunderground v.1.15,2013-05-03 04:02:00,
2013-05-03 00:04:00,48.2,39.2,30.52,ESE,114,0.0,0.0,71,0.00,,,0.00,Wunderground v.1.15,2013-05-03 04:04:00,
2013-05-03 00:06:00,48.1,39.1,30.52,ESE,114,0.0,0.0,71,0.00,,,0.00,Wunderground v.1.15,2013-05-03 04:06:00,
2013-05-03 00:08:00,48.1,39.1,30.52,ESE,114,0.0,0.0,71,0.00,,,0.00,Wunderground v.1.15,2013-05-03 04:08:00,
2013-05-03 00:14:00,48.0,39.0,30.52,ESE,114,0.0,0.0,71,0.00,,,0.00,Wunderground v.1.15,2013-05-03 04:14:00,
2013-05-03 00:20:00,47.9,39.3,30.52,ESE,114,0.0,0.0,72,0.00,,,0.00,Wunderground v.1.15,2013-05-03 04:20:00,
2013-05-03 00:26:00,47.8,39.2,30.52,ESE,114,0.0,0.0,72,0.00,,,0.00,Wunderground v.1.15,2013-05-03 04:26:00,
2013-05-03 00:32:00,47.6,39.0,30.52,ESE,114,0.0,0.0,72,0.00,,,0.00,Wunderground v.1.15,2013-05-03 04:32:00,
2013-05-03 00:38:00,47.4,39.2,30.52,ESE,114,0.0,0.0,73,0.00,,,0.00,Wunderground v.1.15,2013-05-03 04:38:00,
2013-05-03 00:44:00,47.3,39.4,30.52,ESE,114,0.0,0.0,74,0.00,,,0.00,Wunderground v.1.15,2013-05-03 04:44:00,
2013-05-03 00:50:00,47.1,39.2,30.52,ESE,114,0.0,0.0,74,0.00,,,0.00,Wunderground v.1.15,2013-05-03 04:50:00,
2013-05-03 00:56:00,47.0,39.1,30.52,ESE,114,0.0,0.0,74,0.00,,,0.00,Wunderground v.1.15,2013-05-03 04:56:00,
2013-05-03 01:02:00,46.9,39.0,30.52,ESE,114,0.0,0.0,74,0.00,,,0.00,Wunderground v.1.15,2013-05-03 05:02:00,
2013-05-03 01:08:00,46.9,39.4,30.52,ESE,114,0.0,0.0,75,0.00,,,0.00,Wunderground v.1.15,2013-05-03 05:08:00,
2013-05-03 01:14:00,46.9,39.0,30.52,ESE,114,0.0,0.0,74,0.00,,,0.00,Wunderground v.1.15,2013-05-03 05:14:00,
2013-05-03 01:20:00,46.8,38.9,30.51,ESE,114,0.0,0.0,74,0.00,,,0.00,Wunderground v.1.15,2013-05-03 05:20:00,
2013-05-03 01:26:00,46.9,39.0,30.51,ESE,114,0.0,0.0,74,0.00,,,0.00,Wunderground v.1.15,2013-05-03 05:26:00,
2013-05-03 01:32:00,46.9,39.0,30.51,ESE,114,0.0,0.0,74,0.00,,,0.00,Wunderground v.1.15,2013-05-03 05:32:00,
2013-05-03 01:38:00,46.9,38.7,30.51,ESE,114,0.0,0.0,73,0.00,,,0.00,Wunderground v.1.15,2013-05-03 05:38:00,
2013-05-03 01:44:00,47.0,38.8,30.50,ESE,114,0.0,0.0,73,0.00,,,0.00,Wunderground v.1.15,2013-05-03 05:44:00,
2013-05-03 01:50:00,47.0,38.8,30.50,ESE,114,0.0,0.0,73,0.00,,,0.00,Wunderground v.1.15,2013-05-03 05:50:00,
2013-05-03 01:56:00,47.0,38.8,30.51,ESE,114,0.0,0.0,73,0.00,,,0.00,Wunderground v.1.15,2013-05-03 05:56:00,
2013-05-03 02:02:00,47.0,38.8,30.50,ESE,114,0.0,0.0,73,0.00,,,0.00,Wunderground v.1.15,2013-05-03 06:02:00,
2013-05-03 02:08:00,46.9,38.7,30.50,ESE,114,0.0,0.0,73,0.00,,,0.00,Wunderground v.1.15,2013-05-03 06:08:00,
2013-05-03 02:14:00,46.9,38.7,30.50,ESE,114,0.0,0.0,73,0.00,,,0.00,Wunderground v.1.15,2013-05-03 06:14:00,
2013-05-03 02:20:00,46.8,38.6,30.50,ESE,114,0.0,0.0,73,0.00,,,0.00,Wunderground v.1.15,2013-05-03 06:20:00,
2013-05-03 02:26:00,46.7,38.5,30.50,ESE,114,0.0,0.0,73,0.00,,,0.00,Wunderground v.1.15,2013-05-03 06:26:00,
2013-05-03 02:32:00,46.6,38.4,30.50,ESE,114,0.0,0.0,73,0.00,,,0.00,Wunderground v.1.15,2013-05-03 06:32:00,
2013-05-03 02:38:00,46.5,38.3,30.50,ESE,114,0.0,0.0,73,0.00,,,0.00,Wunderground v.1.15,2013-05-03 06:38:00,
2013-05-03 02:44:00,46.3,38.5,30.50,ESE,114,0.0,0.0,74,0.00,,,0.00,Wunderground v.1.15,2013-05-03 06:44:00,
2013-05-03 02:50:00,46.0,38.2,30.50,ESE,114,0.0,0.0,74,0.00,,,0.00,Wunderground v.1.15,2013-05-03 06:50:00,
2013-05-03 02:56:00,45.9,38.4,30.50,ESE,114,0.0,0.0,75,0.00,,,0.00,Wunderground v.1.15,2013-05-03 06:56:00,
2013-05-03 03:02:00,45.7,38.2,30.50,ESE,114,0.0,0.0,75,0.00,,,0.00,Wunderground v.1.15,2013-05-03 07:02:00,
2013-05-03 03:08:00,45.6,38.1,30.50,ESE,114,0.0,0.0,75,0.00,,,0.00,Wunderground v.1.15,2013-05-03 07:08:00,
2013-05-03 03:14:00,45.5,38.0,30.50,ESE,114,0.0,0.0,75,0.00,,,0.00,Wunderground v.1.15,2013-05-03 07:14:00,
2013-05-03 03:20:00,45.5,38.0,30.50,ESE,114,0.0,0.0,75,0.00,,,0.00,Wunderground v.1.15,2013-05-03 07:20:00,
2013-05-03 03:26:00,45.5,38.0,30.50,ESE,114,0.0,0.0,75,0.00,,,0.00,Wunderground v.1.15,2013-05-03 07:26:00,
2013-05-03 03:32:00,45.4,37.9,30.50,ESE,114,0.0,0.0,75,0.00,,,0.00,Wunderground v.1.15,2013-05-03 07:32:00,
2013-05-03 03:38:00,45.4,37.9,30.50,ESE,114,0.0,0.0,75,0.00,,,0.00,Wunderground v.1.15,2013-05-03 07:38:00,
2013-05-03 03:44:00,45.2,38.1,30.50,ESE,114,0.0,0.0,76,0.00,,,0.00,Wunderground v.1.15,2013-05-03 07:44:00,
2013-05-03 03:50:00,45.0,37.9,30.50,ESE,114,0.0,0.0,76,0.00,,,0.00,Wunderground v.1.15,2013-05-03 07:50:00,
2013-05-03 03:56:00,45.0,37.9,30.50,ESE,114,0.0,0.0,76,0.00,,,0.00,Wunderground v.1.15,2013-05-03 07:56:00,
2013-05-03 04:02:00,44.9,38.1,30.50,ESE,114,0.0,0.0,77,0.00,,,0.00,Wunderground v.1.15,2013-05-03 08:02:00,
2013-05-03 04:08:00,44.7,37.9,30.51,ESE,114,0.0,0.0,77,0.00,,,0.00,Wunderground v.1.15,2013-05-03 08:08:00,
2013-05-03 04:14:00,44.6,37.8,30.51,ESE,114,0.0,0.0,77,0.00,,,0.00,Wunderground v.1.15,2013-05-03 08:14:00,
2013-05-03 04:20:00,44.5,37.7,30.51,ESE,114,0.0,0.0,77,0.00,,,0.00,Wunderground v.1.15,2013-05-03 08:20:00,
2013-05-03 04:26:00,44.3,37.9,30.51,ESE,114,0.0,0.0,78,0.00,,,0.00,Wunderground v.1.15,2013-05-03 08:26:00,
2013-05-03 04:32:00,44.1,37.7,30.51,ESE,114,0.0,0.0,78,0.00,,,0.00,Wunderground v.1.15,2013-05-03 08:32:00,
2013-05-03 04:38:00,44.0,37.9,30.51,ESE,114,0.0,0.0,79,0.00,,,0.00,Wunderground v.1.15,2013-05-03 08:38:00,
2013-05-03 04:44:00,43.8,37.7,30.51,ESE,114,0.0,0.0,79,0.00,,,0.00,Wunderground v.1.15,2013-05-03 08:44:00,
2013-05-03 04:50:00,43.8,38.0,30.51,ESE,114,0.0,0.0,80,0.00,,,0.00,Wunderground v.1.15,2013-05-03 08:50:00,
2013-05-03 04:56:00,43.7,37.9,30.52,ESE,114,0.0,0.0,80,0.00,,,0.00,Wunderground v.1.15,2013-05-03 08:56:00,
2013-05-03 05:02:00,43.8,38.0,30.51,ESE,114,0.0,0.0,80,0.00,,,0.00,Wunderground v.1.15,2013-05-03 09:02:00,
2013-05-03 05:08:00,43.9,38.1,30.52,ESE,114,0.0,0.0,80,0.00,,,0.00,Wunderground v.1.15,2013-05-03 09:08:00,
2013-05-03 05:14:00,44.0,38.5,30.52,ESE,114,0.0,0.0,81,0.00,,,0.00,Wunderground v.1.15,2013-05-03 09:14:00,
2013-05-03 05:20:00,44.1,38.6,30.52,ESE,114,0.0,0.0,81,0.00,,,0.00,Wunderground v.1.15,2013-05-03 09:20:00,
2013-05-03 05:26:00,44.1,38.6,30.53,ESE,114,0.0,0.0,81,0.00,,,0.00,Wunderground v.1.15,2013-05-03 09:26:00,
2013-05-03 05:32:00,44.2,38.7,30.53,ESE,114,0.0,0.0,81,0.00,,,0.00,Wunderground v.1.15,2013-05-03 09:32:00,
2013-05-03 05:38:00,44.2,38.7,30.53,ESE,114,0.0,0.0,81,0.00,,,0.00,Wunderground v.1.15,2013-05-03 09:38:00,
2013-05-03 05:44:00,44.2,39.1,30.53,ESE,114,0.0,0.0,82,0.00,,,0.00,Wunderground v.1.15,2013-05-03 09:44:00,
2013-05-03 05:50:00,44.2,39.1,30.53,ESE,114,0.0,0.0,82,0.00,,,0.00,Wunderground v.1.15,2013-05-03 09:50:00,
2013-05-03 05:56:00,44.2,39.1,30.54,ESE,114,0.0,0.0,82,0.00,,,0.00,Wunderground v.1.15,2013-05-03 09:56:00,
2013-05-03 06:02:00,44.3,39.2,30.54,ESE,114,0.0,0.0,82,0.00,,,0.00,Wunderground v.1.15,2013-05-03 10:02:00,
2013-05-03 06:08:00,44.3,39.2,30.54,ESE,114,0.0,0.0,82,0.00,,,0.00,Wunderground v.1.15,2013-05-03 10:08:00,
2013-05-03 06:14:00,44.4,39.2,30.54,ESE,114,0.0,0.0,82,0.00,,,0.00,Wunderground v.1.15,2013-05-03 10:14:00,
2013-05-03 06:20:00,44.5,39.3,30.55,ESE,114,0.0,0.0,82,0.00,,,0.00,Wunderground v.1.15,2013-05-03 10:20:00,
2013-05-03 06:26:00,44.7,39.5,30.55,ESE,114,0.0,0.0,82,0.00,,,0.00,Wunderground v.1.15,2013-05-03 10:26:00,
2013-05-03 06:32:00,44.8,39.6,30.55,ESE,114,0.0,0.0,82,0.00,,,0.00,Wunderground v.1.15,2013-05-03 10:32:00,
2013-05-03 06:38:00,45.0,39.8,30.55,ESE,114,0.0,0.0,82,0.00,,,0.00,Wunderground v.1.15,2013-05-03 10:38:00,
2013-05-03 06:44:00,45.1,39.6,30.55,ESE,114,0.0,0.0,81,0.00,,,0.00,Wunderground v.1.15,2013-05-03 10:44:00,
2013-05-03 06:50:00,45.3,39.8,30.55,ESE,114,0.0,0.0,81,0.00,,,0.00,Wunderground v.1.15,2013-05-03 10:50:00,
2013-05-03 06:56:00,45.6,40.1,30.55,SE,139,0.0,0.0,81,0.00,,,0.00,Wunderground v.1.15,2013-05-03 10:56:00,
2013-05-03 07:02:00,45.9,40.1,30.55,SE,146,0.0,0.0,80,0.00,,,0.00,Wunderground v.1.15,2013-05-03 11:02:00,
2013-05-03 07:08:00,46.2,40.4,30.55,West,264,0.0,1.0,80,0.00,,,0.00,Wunderground v.1.15,2013-05-03 11:08:00,
2013-05-03 07:14:00,46.5,40.3,30.55,West,264,0.0,0.0,79,0.00,,,0.00,Wunderground v.1.15,2013-05-03 11:14:00,
2013-05-03 07:20:00,46.8,40.3,30.56,West,264,0.0,0.0,78,0.00,,,0.00,Wunderground v.1.15,2013-05-03 11:20:00,
2013-05-03 07:26:00,47.1,40.6,30.56,South,183,0.0,0.0,78,0.00,,,0.00,Wunderground v.1.15,2013-05-03 11:26:00,
2013-05-03 07:32:00,47.5,40.6,30.56,East,95,0.0,0.0,77,0.00,,,0.00,Wunderground v.1.15,2013-05-03 11:32:00,
2013-05-03 07:38:00,47.8,40.6,30.56,East,95,0.0,0.0,76,0.00,,,0.00,Wunderground v.1.15,2013-05-03 11:38:00,
2013-05-03 07:44:00,47.8,40.6,30.56,ESE,114,0.0,4.0,76,0.00,,,0.00,Wunderground v.1.15,2013-05-03 11:44:00,
2013-05-03 07:50:00,48.0,40.8,30.56,ESE,123,0.0,0.0,76,0.00,,,0.00,Wunderground v.1.15,2013-05-03 11:50:00,
2013-05-03 07:56:00,48.2,40.6,30.56,ESE,115,0.0,1.0,75,0.00,,,0.00,Wunderground v.1.15,2013-05-03 11:56:00,
2013-05-03 08:02:00,48.4,40.8,30.57,WSW,244,1.0,2.0,75,0.00,,,0.00,Wunderground v.1.15,2013-05-03 12:02:00,
2013-05-03 08:08:00,48.6,40.7,30.57,East,86,0.0,2.0,74,0.00,,,0.00,Wunderground v.1.15,2013-05-03 12:08:00,
2013-05-03 08:14:00,48.9,41.0,30.57,ESE,111,1.0,2.0,74,0.00,,,0.00,Wunderground v.1.15,2013-05-03 12:14:00,
2013-05-03 08:20:00,49.8,41.1,30.57,ESE,118,0.0,0.0,72,0.00,,,0.00,Wunderground v.1.15,2013-05-03 12:20:00,
2013-05-03 08:26:00,50.5,41.1,30.56,ESE,123,1.0,3.0,70,0.00,,,0.00,Wunderground v.1.15,2013-05-03 12:26:00,
2013-05-03 08:32:00,51.2,41.7,30.56,SE,144,1.0,1.0,70,0.00,,,0.00,Wunderground v.1.15,2013-05-03 12:32:00,
2013-05-03 08:38:00,51.6,41.4,30.56,ESE,118,0.0,4.0,68,0.00,,,0.00,Wunderground v.1.15,2013-05-03 12:38:00,
2013-05-03 08:44:00,51.9,41.7,30.57,WSW,248,1.0,1.0,68,0.00,,,0.00,Wunderground v.1.15,2013-05-03 12:44:00,
2013-05-03 08:50:00,52.3,42.0,30.57,West,265,0.0,0.0,68,0.00,,,0.00,Wunderground v.1.15,2013-05-03 12:50:00,
2013-05-03 08:56:00,52.7,41.3,30.57,ESE,119,0.0,0.0,65,0.00,,,0.00,Wunderground v.1.15,2013-05-03 12:56:00,
2013-05-03 09:02:00,52.8,41.4,30.57,SE,130,0.0,1.0,65,0.00,,,0.00,Wunderground v.1.15,2013-05-03 13:02:00,
2013-05-03 09:08:00,53.0,41.5,30.56,WNW,286,0.0,1.0,65,0.00,,,0.00,Wunderground v.1.15,2013-05-03 13:08:00,
2013-05-03 09:14:00,53.5,41.2,30.56,SSW,202,0.0,1.0,63,0.00,,,0.00,Wunderground v.1.15,2013-05-03 13:14:00,
2013-05-03 09:20:00,54.0,40.8,30.56,SSW,194,1.0,1.0,61,0.00,,,0.00,Wunderground v.1.15,2013-05-03 13:20:00,
2013-05-03 09:26:00,53.8,40.7,30.56,ESE,122,2.0,5.0,61,0.00,,,0.00,Wunderground v.1.15,2013-05-03 13:26:00,
2013-05-03 09:32:00,53.9,41.2,30.56,West,277,2.0,2.0,62,0.00,,,0.00,Wunderground v.1.15,2013-05-03 13:32:00,
2013-05-03 09:38:00,55.0,41.8,30.56,South,174,1.0,3.0,61,0.00,,,0.00,Wunderground v.1.15,2013-05-03 13:38:00,
2013-05-03 09:44:00,56.0,42.3,30.55,ESE,109,0.0,1.0,60,0.00,,,0.00,Wunderground v.1.15,2013-05-03 13:44:00,
2013-05-03 09:50:00,56.8,41.7,30.55,WNW,285,0.0,0.0,57,0.00,,,0.00,Wunderground v.1.15,2013-05-03 13:50:00,
2013-05-03 09:56:00,57.0,41.4,30.55,SSE,153,0.0,6.0,56,0.00,,,0.00,Wunderground v.1.15,2013-05-03 13:56:00,
2013-05-03 10:02:00,57.0,41.4,30.55,ESE,116,1.0,7.0,56,0.00,,,0.00,Wunderground v.1.15,2013-05-03 14:02:00,
2013-05-03 10:08:00,57.2,40.7,30.55,ESE,119,1.0,7.0,54,0.00,,,0.00,Wunderground v.1.15,2013-05-03 14:08:00,
2013-05-03 10:14:00,57.6,41.1,30.55,ESE,111,1.0,3.0,54,0.00,,,0.00,Wunderground v.1.15,2013-05-03 14:14:00,
2013-05-03 10:20:00,57.1,40.6,30.55,East,79,2.0,2.0,54,0.00,,,0.00,Wunderground v.1.15,2013-05-03 14:20:00,
2013-05-03 10:26:00,57.4,40.9,30.55,SE,125,2.0,2.0,54,0.00,,,0.00,Wunderground v.1.15,2013-05-03 14:26:00,
2013-05-03 10:32:00,58.5,41.4,30.55,SE,126,1.0,1.0,53,0.00,,,0.00,Wunderground v.1.15,2013-05-03 14:32:00,
2013-05-03 10:38:00,58.3,41.2,30.55,WSW,237,1.0,2.0,53,0.00,,,0.00,Wunderground v.1.15,2013-05-03 14:38:00,
2013-05-03 10:44:00,58.3,40.7,30.55,ESE,117,2.0,5.0,52,0.00,,,0.00,Wunderground v.1.15,2013-05-03 14:44:00,
2013-05-03 10:50:00,58.0,41.0,30.55,North,360,2.0,2.0,53,0.00,,,0.00,Wunderground v.1.15,2013-05-03 14:50:00,
2013-05-03 10:56:00,58.7,41.1,30.55,East,101,2.0,4.0,52,0.00,,,0.00,Wunderground v.1.15,2013-05-03 14:56:00,
2013-05-03 11:02:00,59.0,41.4,30.55,East,95,1.0,4.0,52,0.00,,,0.00,Wunderground v.1.15,2013-05-03 15:02:00,
2013-05-03 11:08:00,58.8,41.2,30.54,NNW,338,2.0,4.0,52,0.00,,,0.00,Wunderground v.1.15,2013-05-03 15:08:00,
2013-05-03 11:14:00,59.3,41.7,30.54,SSW,198,1.0,2.0,52,0.00,,,0.00,Wunderground v.1.15,2013-05-03 15:14:00,
2013-05-03 11:20:00,59.7,42.0,30.54,WNW,292,1.0,1.0,52,0.00,,,0.00,Wunderground v.1.15,2013-05-03 15:20:00,
2013-05-03 11:26:00,59.6,42.4,30.54,ESE,121,1.0,3.0,53,0.00,,,0.00,Wunderground v.1.15,2013-05-03 15:26:00,
2013-05-03 11:32:00,58.8,42.2,30.54,WSW,250,2.0,2.0,54,0.00,,,0.00,Wunderground v.1.15,2013-05-03 15:32:00,
2013-05-03 11:38:00,59.0,41.9,30.54,West,267,2.0,2.0,53,0.00,,,0.00,Wunderground v.1.15,2013-05-03 15:38:00,
2013-05-03 11:44:00,59.0,42.4,30.54,West,267,1.0,2.0,54,0.00,,,0.00,Wunderground v.1.15,2013-05-03 15:44:00,
2013-05-03 11:50:00,59.0,41.9,30.53,ESE,110,1.0,4.0,53,0.00,,,0.00,Wunderground v.1.15,2013-05-03 15:50:00,
2013-05-03 11:56:00,59.1,42.5,30.53,ESE,118,1.0,4.0,54,0.00,,,0.00,Wunderground v.1.15,2013-05-03 15:56:00,
2013-05-03 12:02:00,59.0,42.8,30.53,North,9,1.0,2.0,55,0.00,,,0.00,Wunderground v.1.15,2013-05-03 16:02:00,
2013-05-03 12:08:00,59.9,43.7,30.52,ESE,123,1.0,4.0,55,0.00,,,0.00,Wunderground v.1.15,2013-05-03 16:08:00,
2013-05-03 12:14:00,59.6,43.4,30.53,NW,304,1.0,5.0,55,0.00,,,0.00,Wunderground v.1.15,2013-05-03 16:14:00,
2013-05-03 12:20:00,60.0,43.3,30.52,SE,132,1.0,1.0,54,0.00,,,0.00,Wunderground v.1.15,2013-05-03 16:20:00,
2013-05-03 12:26:00,60.6,42.9,30.52,WNW,286,1.0,1.0,52,0.00,,,0.00,Wunderground v.1.15,2013-05-03 16:26:00,
2013-05-03 12:32:00,60.4,43.7,30.52,WSW,252,1.0,4.0,54,0.00,,,0.00,Wunderground v.1.15,2013-05-03 16:32:00,
2013-05-03 12:38:00,60.7,43.5,30.51,West,273,1.0,4.0,53,0.00,,,0.00,Wunderground v.1.15,2013-05-03 16:38:00,
2013-05-03 12:44:00,60.1,42.4,30.51,ESE,122,1.0,1.0,52,0.00,,,0.00,Wunderground v.1.15,2013-05-03 16:44:00,
2013-05-03 12:50:00,61.1,43.8,30.51,SW,233,1.0,1.0,53,0.00,,,0.00,Wunderground v.1.15,2013-05-03 16:50:00,
2013-05-03 12:56:00,61.0,43.7,30.51,WNW,282,0.0,1.0,53,0.00,,,0.00,Wunderground v.1.15,2013-05-03 16:56:00,
2013-05-03 13:02:00,61.1,43.3,30.50,ESE,123,1.0,2.0,52,0.00,,,0.00,Wunderground v.1.15,2013-05-03 17:02:00,
2013-05-03 13:08:00,61.1,43.3,30.50,West,276,2.0,3.0,52,0.00,,,0.00,Wunderground v.1.15,2013-05-03 17:08:00,
2013-05-03 13:14:00,61.6,42.8,30.50,ESE,110,1.0,2.0,50,0.00,,,0.00,Wunderground v.1.15,2013-05-03 17:14:00,
2013-05-03 13:20:00,60.4,43.2,30.50,ESE,115,2.0,4.0,53,0.00,,,0.00,Wunderground v.1.15,2013-05-03 17:20:00,
2013-05-03 13:26:00,60.9,43.1,30.50,SE,142,1.0,4.0,52,0.00,,,0.00,Wunderground v.1.15,2013-05-03 17:26:00,
2013-05-03 13:32:00,61.5,43.2,30.50,West,281,1.0,1.0,51,0.00,,,0.00,Wunderground v.1.15,2013-05-03 17:32:00,
2013-05-03 13:38:00,62.3,43.9,30.50,SE,140,0.0,3.0,51,0.00,,,0.00,Wunderground v.1.15,2013-05-03 17:38:00,
2013-05-03 13:44:00,62.8,43.3,30.50,ESE,109,0.0,3.0,49,0.00,,,0.00,Wunderground v.1.15,2013-05-03 17:44:00,
2013-05-03 13:50:00,63.4,44.4,30.50,ESE,102,1.0,1.0,50,0.00,,,0.00,Wunderground v.1.15,2013-05-03 17:50:00,
2013-05-03 13:56:00,63.2,43.7,30.50,SSE,159,1.0,2.0,49,0.00,,,0.00,Wunderground v.1.15,2013-05-03 17:56:00,
2013-05-03 14:02:00,61.9,43.6,30.49,ESE,121,1.0,3.0,51,0.00,,,0.00,Wunderground v.1.15,2013-05-03 18:02:00,
2013-05-03 14:08:00,62.1,43.7,30.49,SE,145,1.0,3.0,51,0.00,,,0.00,Wunderground v.1.15,2013-05-03 18:08:00,
2013-05-03 14:14:00,62.5,43.6,30.49,ESE,103,1.0,1.0,50,0.00,,,0.00,Wunderground v.1.15,2013-05-03 18:14:00,
2013-05-03 14:20:00,63.1,43.6,30.49,ESE,116,1.0,1.0,49,0.00,,,0.00,Wunderground v.1.15,2013-05-03 18:20:00,
2013-05-03 14:26:00,62.7,43.8,30.48,ESE,105,2.0,2.0,50,0.00,,,0.00,Wunderground v.1.15,2013-05-03 18:26:00,
2013-05-03 14:32:00,62.7,43.8,30.48,SE,126,2.0,4.0,50,0.00,,,0.00,Wunderground v.1.15,2013-05-03 18:32:00,
2013-05-03 14:38:00,63.3,44.3,30.48,ESE,123,1.0,4.0,50,0.00,,,0.00,Wunderground v.1.15,2013-05-03 18:38:00,
2013-05-03 14:44:00,63.9,43.8,30.47,NNE,25,0.0,1.0,48,0.00,,,0.00,Wunderground v.1.15,2013-05-03 18:44:00,
2013-05-03 14:50:00,63.4,44.4,30.47,SE,130,1.0,1.0,50,0.00,,,0.00,Wunderground v.1.15,2013-05-03 18:50:00,
2013-05-03 14:56:00,63.6,44.1,30.48,WNW,285,1.0,1.0,49,0.00,,,0.00,Wunderground v.1.15,2013-05-03 18:56:00,
2013-05-03 15:02:00,63.4,43.9,30.48,ESE,123,1.0,1.0,49,0.00,,,0.00,Wunderground v.1.15,2013-05-03 19:02:00,
2013-05-03 15:08:00,62.7,43.8,30.48,ESE,115,1.0,3.0,50,0.00,,,0.00,Wunderground v.1.15,2013-05-03 19:08:00,
2013-05-03 15:14:00,62.2,43.8,30.47,NNW,327,1.0,2.0,51,0.00,,,0.00,Wunderground v.1.15,2013-05-03 19:14:00,
2013-05-03 15:20:00,62.5,43.6,30.47,WSW,250,1.0,1.0,50,0.00,,,0.00,Wunderground v.1.15,2013-05-03 19:20:00,
2013-05-03 15:26:00,62.6,44.2,30.47,SSE,152,0.0,1.0,51,0.00,,,0.00,Wunderground v.1.15,2013-05-03 19:26:00,
2013-05-03 15:32:00,62.7,43.8,30.47,ENE,73,1.0,1.0,50,0.00,,,0.00,Wunderground v.1.15,2013-05-03 19:32:00,
2013-05-03 15:38:00,62.3,43.9,30.46,WSW,245,1.0,2.0,51,0.00,,,0.00,Wunderground v.1.15,2013-05-03 19:38:00,
2013-05-03 15:44:00,62.2,43.8,30.46,NNE,26,1.0,1.0,51,0.00,,,0.00,Wunderground v.1.15,2013-05-03 19:44:00,
2013-05-03 15:50:00,61.8,44.0,30.46,ESE,117,0.0,1.0,52,0.00,,,0.00,Wunderground v.1.15,2013-05-03 19:50:00,
2013-05-03 15:56:00,61.0,43.7,30.46,ESE,109,1.0,2.0,53,0.00,,,0.00,Wunderground v.1.15,2013-05-03 19:56:00,
2013-05-03 16:02:00,60.9,44.1,30.45,West,276,1.0,1.0,54,0.00,,,0.00,Wunderground v.1.15,2013-05-03 20:02:00,
2013-05-03 16:08:00,61.0,44.2,30.45,SE,133,0.0,1.0,54,0.00,,,0.00,Wunderground v.1.15,2013-05-03 20:08:00,
2013-05-03 16:14:00,61.2,44.4,30.45,SE,134,1.0,3.0,54,0.00,,,0.00,Wunderground v.1.15,2013-05-03 20:14:00,
2013-05-03 16:20:00,61.2,44.4,30.45,West,262,0.0,1.0,54,0.00,,,0.00,Wunderground v.1.15,2013-05-03 20:20:00,
2013-05-03 16:26:00,61.2,44.4,30.45,ESE,123,0.0,3.0,54,0.00,,,0.00,Wunderground v.1.15,2013-05-03 20:26:00,
2013-05-03 16:32:00,60.9,44.1,30.45,East,79,0.0,1.0,54,0.00,,,0.00,Wunderground v.1.15,2013-05-03 20:32:00,
2013-05-03 16:38:00,60.6,44.3,30.45,SE,130,1.0,1.0,55,0.00,,,0.00,Wunderground v.1.15,2013-05-03 20:38:00,
2013-05-03 16:44:00,60.4,44.2,30.45,SSE,150,1.0,2.0,55,0.00,,,0.00,Wunderground v.1.15,2013-05-03 20:44:00,
2013-05-03 16:50:00,60.3,44.5,30.45,South,169,1.0,1.0,56,0.00,,,0.00,Wunderground v.1.15,2013-05-03 20:50:00,
2013-05-03 16:56:00,60.8,44.5,30.44,SE,133,0.0,3.0,55,0.00,,,0.00,Wunderground v.1.15,2013-05-03 20:56:00,
2013-05-03 17:02:00,61.1,44.8,30.44,ESE,108,0.0,0.0,55,0.00,,,0.00,Wunderground v.1.15,2013-05-03 21:02:00,
2013-05-03 17:08:00,60.9,44.1,30.45,East,88,0.0,2.0,54,0.00,,,0.00,Wunderground v.1.15,2013-05-03 21:08:00,
2013-05-03 17:14:00,60.4,44.6,30.45,ESE,111,0.0,1.0,56,0.00,,,0.00,Wunderground v.1.15,2013-05-03 21:14:00,
2013-05-03 17:20:00,60.3,45.0,30.45,SW,233,0.0,0.0,57,0.00,,,0.00,Wunderground v.1.15,2013-05-03 21:20:00,
2013-05-03 17:26:00,60.3,44.5,30.45,SE,132,1.0,3.0,56,0.00,,,0.00,Wunderground v.1.15,2013-05-03 21:26:00,
2013-05-03 17:32:00,59.6,44.3,30.44,ESE,116,1.0,4.0,57,0.00,,,0.00,Wunderground v.1.15,2013-05-03 21:32:00,
2013-05-03 17:38:00,59.5,44.2,30.45,SSE,151,1.0,4.0,57,0.00,,,0.00,Wunderground v.1.15,2013-05-03 21:38:00,
2013-05-03 17:44:00,59.9,44.6,30.44,SSE,151,0.0,1.0,57,0.00,,,0.00,Wunderground v.1.15,2013-05-03 21:44:00,
2013-05-03 17:50:00,60.3,44.5,30.44,SE,124,0.0,5.0,56,0.00,,,0.00,Wunderground v.1.15,2013-05-03 21:50:00,
2013-05-03 17:56:00,59.4,44.6,30.44,SSW,194,1.0,5.0,58,0.00,,,0.00,Wunderground v.1.15,2013-05-03 21:56:00,
2013-05-03 18:02:00,59.5,44.2,30.44,SSE,154,1.0,1.0,57,0.00,,,0.00,Wunderground v.1.15,2013-05-03 22:02:00,
2013-05-03 18:08:00,59.0,43.8,30.44,SE,145,1.0,1.0,57,0.00,,,0.00,Wunderground v.1.15,2013-05-03 22:08:00,
2013-05-03 18:14:00,58.8,44.5,30.44,SE,145,1.0,1.0,59,0.00,,,0.00,Wunderground v.1.15,2013-05-03 22:14:00,
2013-05-03 18:20:00,58.7,44.0,30.44,SE,144,0.0,0.0,58,0.00,,,0.00,Wunderground v.1.15,2013-05-03 22:20:00,
2013-05-03 18:26:00,58.8,44.5,30.44,SE,144,0.0,0.0,59,0.00,,,0.00,Wunderground v.1.15,2013-05-03 22:26:00,
2013-05-03 18:32:00,58.8,44.0,30.44,SE,144,0.0,0.0,58,0.00,,,0.00,Wunderground v.1.15,2013-05-03 22:32:00,
2013-05-03 18:38:00,58.7,44.0,30.44,SSE,152,0.0,0.0,58,0.00,,,0.00,Wunderground v.1.15,2013-05-03 22:38:00,
2013-05-03 18:44:00,58.3,43.6,30.44,SE,125,0.0,1.0,58,0.00,,,0.00,Wunderground v.1.15,2013-05-03 22:44:00,
2013-05-03 18:50:00,57.9,43.7,30.45,SE,126,0.0,0.0,59,0.00,,,0.00,Wunderground v.1.15,2013-05-03 22:50:00,
2013-05-03 18:56:00,57.5,43.3,30.45,SE,125,0.0,1.0,59,0.00,,,0.00,Wunderground v.1.15,2013-05-03 22:56:00,
2013-05-03 19:02:00,57.3,43.5,30.45,SE,125,0.0,0.0,60,0.00,,,0.00,Wunderground v.1.15,2013-05-03 23:02:00,
2013-05-03 19:08:00,57.2,43.0,30.45,SE,125,0.0,0.0,59,0.00,,,0.00,Wunderground v.1.15,2013-05-03 23:08:00,
2013-05-03 19:14:00,57.2,43.4,30.45,SE,125,0.0,0.0,60,0.00,,,0.00,Wunderground v.1.15,2013-05-03 23:14:00,
2013-05-03 19:20:00,56.9,42.3,30.45,SE,125,0.0,0.0,58,0.00,,,0.00,Wunderground v.1.15,2013-05-03 23:20:00,
2013-05-03 19:26:00,56.0,41.9,30.45,SE,125,0.0,0.0,59,0.00,,,0.00,Wunderground v.1.15,2013-05-03 23:26:00,
2013-05-03 19:32:00,55.3,41.6,30.45,East,99,0.0,0.0,60,0.00,,,0.00,Wunderground v.1.15,2013-05-03 23:32:00,
2013-05-03 19:38:00,54.6,41.4,30.45,East,100,0.0,0.0,61,0.00,,,0.00,Wunderground v.1.15,2013-05-03 23:38:00,
2013-05-03 19:44:00,54.2,41.9,30.44,East,99,0.0,0.0,63,0.00,,,0.00,Wunderground v.1.15,2013-05-03 23:44:00,
2013-05-03 19:50:00,53.9,41.6,30.44,East,100,0.0,0.0,63,0.00,,,0.00,Wunderground v.1.15,2013-05-03 23:50:00,
2013-05-03 19:56:00,53.5,41.6,30.44,East,99,0.0,0.0,64,0.00,,,0.00,Wunderground v.1.15,2013-05-03 23:56:00,
2013-05-03 20:02:00,53.2,41.3,30.45,East,100,0.0,0.0,64,0.00,,,0.00,Wunderground v.1.15,2013-05-04 00:02:00,
2013-05-03 20:08:00,52.8,41.4,30.45,East,100,0.0,0.0,65,0.00,,,0.00,Wunderground v.1.15,2013-05-04 00:08:00,
2013-05-03 20:14:00,52.5,41.1,30.45,East,100,0.0,0.0,65,0.00,,,0.00,Wunderground v.1.15,2013-05-04 00:14:00,
2013-05-03 20:20:00,52.3,41.3,30.45,East,100,0.0,0.0,66,0.00,,,0.00,Wunderground v.1.15,2013-05-04 00:20:00,
2013-05-03 20:26:00,52.0,41.4,30.45,East,99,0.0,0.0,67,0.00,,,0.00,Wunderground v.1.15,2013-05-04 00:26:00,
2013-05-03 20:32:00,51.7,41.1,30.45,East,100,0.0,0.0,67,0.00,,,0.00,Wunderground v.1.15,2013-05-04 00:32:00,
2013-05-03 20:38:00,51.4,41.2,30.45,East,99,0.0,0.0,68,0.00,,,0.00,Wunderground v.1.15,2013-05-04 00:38:00,
2013-05-03 20:44:00,51.0,41.2,30.45,East,100,0.0,0.0,69,0.00,,,0.00,Wunderground v.1.15,2013-05-04 00:44:00,
2013-05-03 20:50:00,50.7,40.9,30.45,East,100,0.0,0.0,69,0.00,,,0.00,Wunderground v.1.15,2013-05-04 00:50:00,
2013-05-03 20:56:00,50.5,40.7,30.45,East,100,0.0,0.0,69,0.00,,,0.00,Wunderground v.1.15,2013-05-04 00:56:00,
2013-05-03 21:02:00,50.4,41.0,30.45,East,100,0.0,0.0,70,0.00,,,0.00,Wunderground v.1.15,2013-05-04 01:02:00,
2013-05-03 21:08:00,50.3,40.9,30.45,East,99,0.0,0.0,70,0.00,,,0.00,Wunderground v.1.15,2013-05-04 01:08:00,
2013-05-03 21:14:00,50.2,40.8,30.45,East,100,0.0,0.0,70,0.00,,,0.00,Wunderground v.1.15,2013-05-04 01:14:00,
2013-05-03 21:20:00,50.0,40.6,30.45,East,99,0.0,0.0,70,0.00,,,0.00,Wunderground v.1.15,2013-05-04 01:20:00,
2013-05-03 21:26:00,49.8,40.8,30.45,East,100,0.0,0.0,71,0.00,,,0.00,Wunderground v.1.15,2013-05-04 01:26:00,
2013-05-03 21:32:00,49.5,40.8,30.45,East,99,0.0,0.0,72,0.00,,,0.00,Wunderground v.1.15,2013-05-04 01:32:00,
2013-05-03 21:38:00,49.2,40.6,30.45,East,100,0.0,0.0,72,0.00,,,0.00,Wunderground v.1.15,2013-05-04 01:38:00,
2013-05-03 21:44:00,49.1,40.5,30.45,East,99,0.0,0.0,72,0.00,,,0.00,Wunderground v.1.15,2013-05-04 01:44:00,
2013-05-03 21:50:00,49.0,40.4,30.45,East,100,0.0,0.0,72,0.00,,,0.00,Wunderground v.1.15,2013-05-04 01:50:00,
2013-05-03 21:56:00,48.8,40.5,30.45,East,99,0.0,0.0,73,0.00,,,0.00,Wunderground v.1.15,2013-05-04 01:56:00,
2013-05-03 22:02:00,48.7,40.4,30.45,East,100,0.0,0.0,73,0.00,,,0.00,Wunderground v.1.15,2013-05-04 02:02:00,
2013-05-03 22:08:00,48.4,40.5,30.44,East,100,0.0,0.0,74,0.00,,,0.00,Wunderground v.1.15,2013-05-04 02:08:00,
2013-05-03 22:14:00,48.4,40.5,30.45,East,99,0.0,0.0,74,0.00,,,0.00,Wunderground v.1.15,2013-05-04 02:14:00,
2013-05-03 22:20:00,48.3,40.7,30.44,East,100,0.0,0.0,75,0.00,,,0.00,Wunderground v.1.15,2013-05-04 02:20:00,
2013-05-03 22:26:00,48.2,41.7,30.44,East,99,0.0,0.0,78,0.00,,,0.00,Wunderground v.1.15,2013-05-04 02:26:00,
2013-05-03 22:32:00,48.1,40.5,30.44,East,100,0.0,0.0,75,0.00,,,0.00,Wunderground v.1.15,2013-05-04 02:32:00,
2013-05-03 22:38:00,48.0,40.5,30.44,East,100,0.0,0.0,75,0.00,,,0.00,Wunderground v.1.15,2013-05-04 02:38:00,
2013-05-03 22:44:00,47.8,40.3,30.44,East,99,0.0,0.0,75,0.00,,,0.00,Wunderground v.1.15,2013-05-04 02:44:00,
2013-05-03 22:50:00,47.6,40.4,30.44,East,100,0.0,0.0,76,0.00,,,0.00,Wunderground v.1.15,2013-05-04 02:50:00,
2013-05-03 22:56:00,47.4,40.2,30.43,East,100,0.0,0.0,76,0.00,,,0.00,Wunderground v.1.15,2013-05-04 02:56:00,
2013-05-03 23:02:00,47.3,40.1,30.43,East,100,0.0,0.0,76,0.00,,,0.00,Wunderground v.1.15,2013-05-04 03:02:00,
2013-05-03 23:08:00,47.2,40.0,30.43,East,99,0.0,0.0,76,0.00,,,0.00,Wunderground v.1.15,2013-05-04 03:08:00,
2013-05-03 23:14:00,47.1,40.3,30.43,East,100,0.0,0.0,77,0.00,,,0.00,Wunderground v.1.15,2013-05-04 03:14:00,
2013-05-03 23:20:00,46.9,40.1,30.43,East,100,0.0,0.0,77,0.00,,,0.00,Wunderground v.1.15,2013-05-04 03:20:00,
2013-05-03 23:26:00,46.7,40.2,30.43,East,100,0.0,0.0,78,0.00,,,0.00,Wunderground v.1.15,2013-05-04 03:26:00,
2013-05-03 23:32:00,46.5,40.0,30.42,East,100,0.0,0.0,78,0.00,,,0.00,Wunderground v.1.15,2013-05-04 03:32:00,
2013-05-03 23:38:00,46.2,39.7,30.42,East,100,0.0,0.0,78,0.00,,,0.00,Wunderground v.1.15,2013-05-04 03:38:00,
2013-05-03 23:44:00,45.9,39.8,30.42,East,100,0.0,0.0,79,0.00,,,0.00,Wunderground v.1.15,2013-05-04 03:44:00,
2013-05-03 23:50:00,45.8,40.0,30.42,East,99,0.0,0.0,80,0.00,,,0.00,Wunderground v.1.15,2013-05-04 03:50:00,
2013-05-03 23:56:00,45.5,39.7,30.42,East,100,0.0,0.0,80,0.00,,,0.00,Wunderground v.1.15,2013-05-04 03:56:00,